Location: Oak Glen
(34.0495°N, 116.9470°E)
Time: 23:02:45
(UTC-08:00)

Vanguard 2 Rocket - Visible Passes

Search period start: 21 February 2018 00:00
Search period end: 03 March 2018 00:00
Orbit: 555 x 3327 km, 32.9° (Epoch: 21 February)

Date Brightness Start Highest point End Pass type
(mag) Time Alt. Az. Time Alt. Az. Time Alt. Az.
21 Feb 9.1 04:09:55 10° S 04:14:40 24° SSE 04:14:40 24° SSE visible
21 Feb 10.1 06:19:57 10° SW 06:20:31 12° SW 06:20:31 12° SW visible
21 Feb 10.4 09:01:30 28° E 09:01:30 28° E 09:08:36 10° E visible
21 Feb 9.3 11:07:19 75° S 11:07:19 75° S 11:26:39 10° ESE visible
21 Feb 9.8 13:13:09 26° W 13:24:39 45° SW 13:40:38 10° SSE visible
22 Feb 9.4 03:13:49 10° SSE 03:17:56 14° SE 03:18:55 14° ESE visible
22 Feb 9.2 05:21:15 10° SW 05:24:46 29° SSW 05:24:46 29° SSW visible
22 Feb 11.0 08:05:29 11° E 08:05:29 11° E 08:06:03 10° E visible
22 Feb 9.7 10:11:19 55° ESE 10:11:19 55° ESE 10:25:14 10° ESE visible
22 Feb 9.6 12:17:08 46° WSW 12:23:05 56° SSW 12:41:02 10° SE visible
22 Feb 10.3 14:25:17 10° W 14:39:08 24° SW 14:51:10 10° S visible
23 Feb 8.7 04:23:04 10° SSW 04:29:01 36° SSE 04:29:01 36° SSE visible
23 Feb 10.1 06:34:18 10° WSW 06:34:52 13° WSW 06:34:52 13° WSW visible
23 Feb 10.4 09:15:22 30° E 09:15:22 30° E 09:23:12 10° E visible
23 Feb 9.4 11:21:12 66° SSW 11:21:12 66° SSW 11:40:39 10° SE visible
23 Feb 10.1 13:27:02 20° W 13:38:15 34° SW 13:53:15 10° SSE visible
24 Feb 8.9 03:25:39 10° S 03:31:22 23° SE 03:33:16 22° ESE visible
24 Feb 9.1 05:35:21 10° WSW 05:39:07 33° SW 05:39:07 33° SW visible
24 Feb 10.9 08:19:29 13° E 08:19:29 13° E 08:20:40 10° E visible
24 Feb 9.7 10:25:20 54° SE 10:25:20 54° SE 10:39:29 10° ESE visible
24 Feb 9.7 12:31:09 38° WSW 12:36:54 44° SW 12:54:10 10° SSE visible
25 Feb 9.2 02:30:21 10° SE 02:32:32 11° SE 02:35:01 10° ESE visible
25 Feb 8.3 04:36:50 10° SW 04:43:20 49° SSE 04:43:20 49° SSE visible
25 Feb 10.1 06:48:49 10° WSW 06:49:10 12° WSW 06:49:10 12° WSW visible
25 Feb 10.3 09:29:31 31° ESE 09:29:31 31° ESE 09:37:39 10° ESE visible
25 Feb 9.5 11:35:21 54° SSW 11:35:21 54° SSW 11:54:11 10° SE visible
25 Feb 10.3 13:41:11 15° W 13:51:48 24° SW 14:04:49 10° S visible
26 Feb 8.4 03:38:48 10° SSW 03:45:00 34° SE 03:47:31 30° ESE visible
26 Feb 9.1 05:49:44 10° WSW 05:53:21 33° WSW 05:53:21 33° WSW visible
26 Feb 10.9 08:33:45 13° ESE 08:33:45 13° ESE 08:35:14 10° ESE visible
26 Feb 9.8 10:39:35 49° SSE 10:39:35 49° SSE 10:53:23 10° SE visible
26 Feb 10.0 12:45:26 30° WSW 12:50:39 33° SW 13:06:34 10° SSE visible
27 Feb 8.7 02:41:33 10° S 02:46:02 20° SE 02:51:40 11° E visible
27 Feb 8.1 04:50:59 10° WSW 04:57:30 61° S 04:57:30 61° S visible
27 Feb 10.3 09:43:52 30° SE 09:43:52 30° SE 09:51:50 10° ESE visible
27 Feb 9.7 11:49:43 43° SSW 11:49:43 43° SSW 12:07:09 10° SSE visible
27 Feb 10.5 13:56:31 10° WSW 14:05:27 15° SW 14:14:09 10° SSW visible
28 Feb 8.0 03:52:35 10° SW 03:58:55 48° SSE 04:01:37 39° ESE visible
28 Feb 9.2 06:04:16 10° W 06:07:27 30° WSW 06:07:27 30° WSW visible
28 Feb 10.9 08:48:10 13° ESE 08:48:10 13° ESE 08:49:40 10° ESE visible
28 Feb 9.9 10:54:02 42° SSE 10:54:02 42° SSE 11:06:47 10° SE visible
28 Feb 10.2 12:59:53 21° WSW 13:04:24 23° SW 13:17:51 10° S visible
01 Mar 8.2 02:54:39 10° SSW 02:59:46 31° SE 03:05:41 15° E visible
01 Mar 8.0 05:05:24 10° WSW 05:11:30 66° SW 05:11:30 66° SW visible
01 Mar 10.4 09:58:21 28° SE 09:58:21 28° SE 10:05:37 10° SE visible
01 Mar 10.0 12:04:12 31° SSW 12:04:12 31° SSW 12:19:19 10° SSE visible
02 Mar 7.7 04:06:47 10° WSW 04:13:07 63° SSE 04:15:33 49° ESE visible
02 Mar 9.4 06:18:53 10° W 06:21:22 25° W 06:21:22 25° W visible
02 Mar 10.9 09:02:41 12° ESE 09:02:41 12° ESE 09:03:47 10° ESE visible
02 Mar 10.1 11:08:32 33° S 11:08:32 33° S 11:19:34 10° SSE visible
02 Mar 10.5 13:14:23 13° WSW 13:18:18 14° SW 13:26:37 10° SSW visible
